TimeEDT,TemperatureF,Dew PointF,Humidity,Sea Level PressureIn,VisibilityMPH,Wind Direction,Wind SpeedMPH,Gust SpeedMPH,PrecipitationIn,Events,Conditions,WindDirDegrees,DateUTC
12:53 AM,53.1,43.0,69,30.35,10.0,East,3.5,-,N/A,,Clear,100,2013-04-27 04:53:00
1:53 AM,55.0,45.0,69,30.35,10.0,Calm,Calm,-,N/A,,Clear,0,2013-04-27 05:53:00
2:53 AM,55.0,46.0,72,30.34,10.0,East,4.6,-,N/A,,Clear,90,2013-04-27 06:53:00
3:53 AM,55.0,46.9,74,30.33,10.0,Calm,Calm,-,N/A,,Clear,0,2013-04-27 07:53:00
4:53 AM,55.0,48.0,77,30.33,10.0,NE,3.5,-,N/A,,Clear,40,2013-04-27 08:53:00
5:53 AM,55.0,48.0,77,30.32,10.0,Calm,Calm,-,N/A,,Clear,0,2013-04-27 09:53:00
6:53 AM,55.0,48.0,77,30.34,10.0,Calm,Calm,-,N/A,,Partly Cloudy,0,2013-04-27 10:53:00
7:53 AM,55.9,48.9,77,30.36,10.0,NE,3.5,-,N/A,,Overcast,50,2013-04-27 11:53:00
8:53 AM,59.0,52.0,78,30.37,10.0,NNE,4.6,-,N/A,,Mostly Cloudy,20,2013-04-27 12:53:00
9:53 AM,63.0,52.0,67,30.35,10.0,NNE,3.5,-,N/A,,Overcast,30,2013-04-27 13:53:00
10:53 AM,66.9,53.1,61,30.34,10.0,Variable,3.5,-,N/A,,Partly Cloudy,0,2013-04-27 14:53:00
11:53 AM,70.0,48.0,46,30.34,10.0,SSE,4.6,-,N/A,,Clear,160,2013-04-27 15:53:00
12:53 PM,73.0,48.0,41,30.31,10.0,East,4.6,-,N/A,,Clear,100,2013-04-27 16:53:00
1:53 PM,75.0,46.0,36,30.30,10.0,SE,9.2,-,N/A,,Clear,140,2013-04-27 17:53:00
2:53 PM,73.9,44.1,34,30.30,10.0,SE,4.6,-,N/A,,Mostly Cloudy,140,2013-04-27 18:53:00
3:53 PM,73.9,43.0,33,30.28,10.0,Variable,3.5,-,N/A,,Mostly Cloudy,0,2013-04-27 19:53:00
4:53 PM,70.0,48.9,47,30.28,10.0,ENE,4.6,-,0.00,Rain,Light Rain,70,2013-04-27 20:53:00
5:53 PM,66.9,57.9,73,30.29,9.0,Calm,Calm,-,0.01,Rain,Light Rain,0,2013-04-27 21:53:00
6:53 PM,62.1,57.0,84,30.30,8.0,NNW,10.4,-,0.03,Rain,Light Rain,340,2013-04-27 22:53:00
7:53 PM,61.0,57.0,87,30.29,10.0,NNE,4.6,-,0.01,,Overcast,30,2013-04-27 23:53:00
8:53 PM,59.0,55.9,90,30.27,8.0,ENE,3.5,-,N/A,,Clear,70,2013-04-28 00:53:00
9:53 PM,60.1,55.9,86,30.29,10.0,NE,3.5,-,N/A,,Overcast,40,2013-04-28 01:53:00
10:53 PM,59.0,57.0,93,30.27,8.0,Calm,Calm,-,N/A,,Mostly Cloudy,0,2013-04-28 02:53:00
11:53 PM,60.1,54.0,80,30.27,10.0,Calm,Calm,-,N/A,,Overcast,0,2013-04-28 03:53:00